EN

Hourly Weather Godzisz

Today, 18 May, Tuesday

Time Temperature Precipitation Wind Pressure Humidity
00:00 +12°C° 0 mm 2 mps 741 mmHg 81%
01:00 +13°C° 0 mm 2 mps 740 mmHg 82%
02:00 +12°C° 0 mm 2 mps 740 mmHg 84%
03:00 +12°C° 0 mm 2 mps 740 mmHg 87%
04:00 +11°C° 0 mm 3 mps 740 mmHg 89%
05:00 +12°C° 0 mm 3 mps 740 mmHg 87%
06:00 +13°C° 0 mm 3 mps 741 mmHg 85%
07:00 +14°C° 0 mm 3 mps 741 mmHg 82%
08:00 +14°C° 0.1 mm 4 mps 741 mmHg 79%
09:00 +15°C° 0.1 mm 5 mps 741 mmHg 76%
10:00 +16°C° 0.1 mm 5 mps 741 mmHg 73%
11:00 +16°C° 0.4 mm 6 mps 741 mmHg 75%
12:00 +15°C° 0.4 mm 6 mps 742 mmHg 77%
13:00 +15°C° 0.4 mm 7 mps 742 mmHg 78%
14:00 +15°C° 0.2 mm 7 mps 742 mmHg 78%
15:00 +15°C° 0.2 mm 6 mps 742 mmHg 78%
16:00 +15°C° 0.2 mm 6 mps 742 mmHg 78%
17:00 +14°C° 0.1 mm 6 mps 742 mmHg 81%
18:00 +13°C° 0.1 mm 6 mps 743 mmHg 83%
19:00 +11°C° 0.1 mm 6 mps 743 mmHg 86%
20:00 +12°C° 0.1 mm 5 mps 743 mmHg 87%
21:00 +12°C° 0.1 mm 5 mps 743 mmHg 89%
22:00 +10°C° 0.1 mm 5 mps 744 mmHg 91%
23:00 +10°C° 0.1 mm 5 mps 744 mmHg 92%

Tomorrow, 19 May, Wednesday

Time Temperature Precipitation Wind Pressure Humidity
00:00 +9°C° 0.1 mm 5 mps 744 mmHg 93%
01:00 +9°C° 0.1 mm 5 mps 744 mmHg 94%
02:00 +10°C° 0.1 mm 4 mps 744 mmHg 95%
03:00 +8°C° 0.1 mm 4 mps 745 mmHg 95%
04:00 +8°C° 0.1 mm 4 mps 745 mmHg 95%
05:00 +10°C° 0 mm 4 mps 745 mmHg 91%
06:00 +10°C° 0 mm 5 mps 745 mmHg 87%
07:00 +10°C° 0 mm 5 mps 746 mmHg 83%
08:00 +12°C° 0.1 mm 5 mps 746 mmHg 77%
09:00 +13°C° 0.1 mm 5 mps 746 mmHg 71%
10:00 +14°C° 0.1 mm 5 mps 746 mmHg 65%
11:00 +15°C° 0 mm 5 mps 746 mmHg 63%
12:00 +15°C° 0 mm 5 mps 746 mmHg 61%
13:00 +15°C° 0 mm 4 mps 746 mmHg 59%
14:00 +15°C° 0 mm 4 mps 746 mmHg 61%
15:00 +15°C° 0 mm 4 mps 746 mmHg 63%
16:00 +15°C° 0 mm 4 mps 746 mmHg 64%
17:00 +14°C° 0.1 mm 3 mps 746 mmHg 69%
18:00 +13°C° 0.1 mm 3 mps 746 mmHg 74%
19:00 +13°C° 0.1 mm 2 mps 747 mmHg 79%
20:00 +12°C° 0 mm 2 mps 747 mmHg 83%
21:00 +10°C° 0 mm 2 mps 747 mmHg 86%
22:00 +9°C° 0 mm 2 mps 747 mmHg 90%
23:00 +9°C° 0 mm 2 mps 747 mmHg 91%

Day after tomorrow, 20 May, Thursday

Time Temperature Precipitation Wind Pressure Humidity
00:00 +8°C° 0 mm 2 mps 747 mmHg 93%
01:00 +8°C° 0 mm 2 mps 747 mmHg 94%
02:00 +8°C° 0 mm 3 mps 748 mmHg 92%
03:00 +7°C° 0 mm 3 mps 748 mmHg 89%
04:00 +6°C° 0 mm 4 mps 748 mmHg 87%
05:00 +7°C° 0 mm 4 mps 748 mmHg 82%
06:00 +8°C° 0 mm 4 mps 749 mmHg 77%
07:00 +10°C° 0 mm 4 mps 749 mmHg 71%
08:00 +12°C° 0 mm 4 mps 749 mmHg 65%
09:00 +13°C° 0 mm 4 mps 749 mmHg 59%
10:00 +14°C° 0 mm 5 mps 749 mmHg 53%
11:00 +15°C° 0 mm 5 mps 749 mmHg 51%
12:00 +16°C° 0 mm 5 mps 749 mmHg 49%
13:00 +16°C° 0 mm 5 mps 749 mmHg 47%
14:00 +17°C° 0 mm 4 mps 749 mmHg 50%
15:00 +17°C° 0 mm 4 mps 749 mmHg 53%
16:00 +17°C° 0 mm 4 mps 749 mmHg 55%
17:00 +16°C° 0 mm 3 mps 749 mmHg 60%
18:00 +14°C° 0 mm 3 mps 750 mmHg 65%
19:00 +13°C° 0 mm 3 mps 750 mmHg 69%
20:00 +12°C° 0 mm 3 mps 750 mmHg 74%
21:00 +10°C° 0 mm 3 mps 750 mmHg 79%
22:00 +9°C° 0 mm 3 mps 751 mmHg 83%
23:00 +9°C° 0 mm 3 mps 751 mmHg 87%

21 May, Friday

Time Temperature Precipitation Wind Pressure Humidity
00:00 +8°C° 0 mm 3 mps 751 mmHg 90%
01:00 +7°C° 0 mm 2 mps 751 mmHg 93%
02:00 +7°C° 0 mm 2 mps 752 mmHg 94%
03:00 +7°C° 0 mm 2 mps 752 mmHg 94%
04:00 +6°C° 0 mm 2 mps 752 mmHg 94%
05:00 +9°C° 0 mm 1 mps 752 mmHg 87%
06:00 +11°C° 0 mm 1 mps 752 mmHg 79%
07:00 +12°C° 0 mm 1 mps 753 mmHg 72%
08:00 +14°C° 0 mm 1 mps 752 mmHg 66%
09:00 +15°C° 0 mm 1 mps 752 mmHg 60%
10:00 +17°C° 0 mm 2 mps 752 mmHg 54%
11:00 +17°C° 0 mm 2 mps 752 mmHg 51%
12:00 +18°C° 0 mm 2 mps 751 mmHg 48%
13:00 +19°C° 0 mm 2 mps 751 mmHg 44%
14:00 +19°C° 0 mm 2 mps 751 mmHg 44%
15:00 +19°C° 0 mm 2 mps 750 mmHg 45%
16:00 +19°C° 0 mm 2 mps 750 mmHg 45%
17:00 +18°C° 0 mm 2 mps 750 mmHg 52%
18:00 +16°C° 0 mm 3 mps 750 mmHg 59%
19:00 +14°C° 0 mm 3 mps 749 mmHg 66%
20:00 +13°C° 0 mm 3 mps 749 mmHg 68%
21:00 +12°C° 0 mm 3 mps 749 mmHg 71%
22:00 +11°C° 0 mm 4 mps 749 mmHg 73%
23:00 +11°C° 0 mm 4 mps 748 mmHg 72%

22 May, Saturday

Time Temperature Precipitation Wind Pressure Humidity
00:00 +12°C° 0 mm 4 mps 748 mmHg 72%
01:00 +12°C° 0 mm 5 mps 748 mmHg 71%
02:00 +12°C° 0 mm 5 mps 747 mmHg 72%
03:00 +11°C° 0 mm 4 mps 747 mmHg 73%
04:00 +11°C° 0 mm 4 mps 747 mmHg 75%
05:00 +12°C° 0 mm 5 mps 746 mmHg 73%
06:00 +13°C° 0 mm 5 mps 746 mmHg 71%
07:00 +14°C° 0 mm 6 mps 746 mmHg 69%
08:00 +16°C° 0 mm 6 mps 746 mmHg 64%
09:00 +17°C° 0 mm 6 mps 746 mmHg 59%
10:00 +20°C° 0 mm 5 mps 745 mmHg 55%
11:00 +20°C° 0 mm 6 mps 745 mmHg 55%
12:00 +20°C° 0 mm 6 mps 745 mmHg 55%
13:00 +21°C° 0 mm 6 mps 744 mmHg 55%
14:00 +20°C° 0.1 mm 6 mps 744 mmHg 57%
15:00 +20°C° 0.1 mm 7 mps 743 mmHg 59%
16:00 +20°C° 0.1 mm 7 mps 743 mmHg 61%
17:00 +17°C° 0.4 mm 5 mps 743 mmHg 71%
18:00 +15°C° 0.4 mm 4 mps 743 mmHg 81%
19:00 +13°C° 0.4 mm 3 mps 743 mmHg 90%
20:00 +13°C° 0.1 mm 3 mps 744 mmHg 91%
21:00 +13°C° 0.1 mm 4 mps 744 mmHg 91%
22:00 +12°C° 0.1 mm 5 mps 745 mmHg 92%
23:00 +12°C° 0.5 mm 5 mps 745 mmHg 92%

23 May, Sunday

Time Temperature Precipitation Wind Pressure Humidity
00:00 +11°C° 0.5 mm 4 mps 745 mmHg 92%
01:00 +11°C° 0.5 mm 4 mps 746 mmHg 92%
02:00 +10°C° 0 mm 4 mps 746 mmHg 92%
03:00 +10°C° 0 mm 4 mps 746 mmHg 91%
04:00 +10°C° 0 mm 4 mps 746 mmHg 91%
05:00 +10°C° 0 mm 4 mps 747 mmHg 85%
06:00 +11°C° 0 mm 4 mps 747 mmHg 80%
07:00 +12°C° 0 mm 4 mps 747 mmHg 74%
08:00 +13°C° 0 mm 4 mps 747 mmHg 69%
09:00 +15°C° 0 mm 5 mps 748 mmHg 63%
10:00 +16°C° 0 mm 5 mps 748 mmHg 58%
11:00 +16°C° 0.2 mm 5 mps 748 mmHg 57%
12:00 +16°C° 0.2 mm 5 mps 748 mmHg 57%
13:00 +16°C° 0.2 mm 5 mps 748 mmHg 57%
14:00 +16°C° 0.3 mm 5 mps 748 mmHg 62%
15:00 +15°C° 0.3 mm 5 mps 748 mmHg 67%
16:00 +14°C° 0.3 mm 5 mps 749 mmHg 72%
17:00 +14°C° 0.2 mm 4 mps 749 mmHg 76%
18:00 +13°C° 0.2 mm 3 mps 749 mmHg 81%
19:00 +13°C° 0.2 mm 2 mps 749 mmHg 86%
20:00 +12°C° 0 mm 2 mps 750 mmHg 88%
21:00 +10°C° 0 mm 3 mps 750 mmHg 89%
22:00 +9°C° 0 mm 3 mps 751 mmHg 91%
23:00 +8°C° 0 mm 3 mps 751 mmHg 92%
Show more